THOR ABLESTAR DEB, 335

Orbit data source: Space-Track

THOR ABLESTAR DEB, 335 is space debris in LEO originally from a launch on Thu, 29 Jun 1961 UTC launched from the Air Force Eastern Test Range (AFETR). Debris objects in space refer to the collection of defunct objects orbiting the Earth. Examples of debris include non-operational satellites, rocket bodies, and fragments generated from explosions, collisions, or faulty payload assembly.

Loading next visibility...
Identifier
335, 1961-015DM
Orbit
LEO
Country
Flag of USUS
Related business
Manufacturer
Unknown
Mission
Spacecraft
Bus & Motor
Unknown
Mass
Unknown
Launch date (UTC)
1961-06-29 (64 years ago)
Launch vehicle
Unknown
Launch site
Air Force Eastern Test Range (AFETR)
Object type
Payload
Rocket body
Debris
Shape & HBR
Unknown
Radar Cross Section
Small (<0.1 m²)

Expand to show TLE details & history
Last TLE update: 1 day ago

TLE from 1 day ago
0 THOR ABLESTAR DEB
1 00335U 61015DM  25260.00426601  .00000716  00000-0  35757-3 0  9992
2 00335  66.8383 111.5903 0035460   2.1985 357.9259 14.22197429288458
Epoch: 2025-09-17T00:06Z
TLE epoch observation values (Epoch: 2025-09-17T00:06:08.583Z)
Latitude
-0.00004°
Longitude
113.86808°
Altitude
794.537 km
Speed
7.47 km/s
True Right ascension
07h 26m 21s
True Declination
0° 00' 00"
Sunlit
Object was in daylight at epoch
Visualization orbit readout
Latitude
Unknown
Longitude
Unknown
Altitude
Unknown
Speed
Unknown
Apparent Right ascension
Unknown
Apparent Declination
Unknown
Sunlit
N/A
Visualization observer readout
Local Sidereal Time
19:12:30
Azimuth
Unknown
Elevation
Unknown
Doppler factor
Unknown
Orbital elements
Apogee altitude
841.807 km
Perigee altitude
790.784 km
Semi-major axis
7,194.433 km
Eccentricity
0.00355
Inclination
66.8383°
RAAN
111.5903°
Arg. of periapsis
2.1985°
True anomaly
357.91113°
Mean anomaly
357.9259°
Eccentric anomaly
357.91852°
Mean motion
3.55671 °/min
Orbital period
101.22 mins
BSTAR
0.00035757
Loading maneuver chart data...
Computing Atmospheric mass density...

Documentation

Showing up to 5 results
|